Temp
61 60 60 60 60 59 59 60 60 60 60 60 61 60 60 59 59 59 58 58 57 56
61 61 60 60 60 59 59 61 60 61 61 61 61 61 61 60 60 60 60 58 57 56
60 61 60 60 60 60 59 60 60 60 61 61 62 62 61 59 60 60 60 59 59 58
60 61 60 60 60 59 59 60 61 62 62 62 61 61 59 60 62 62 62 61 59 59
60 60 59 60 60 60 60 60 61 62 63 64 62 61 60 61 62 62 61 61 60 58
59 59 59 60 60 60 60 60 62 63 62 63 63 62 61 62 62 61 61 61 60 59
59 59 59 60 59 60 61 62 65 66 65 63 62 62 63 63 62 61 61 60 60 60
62 60 60 60 60 61 62 65 67 64 61 60 60 58 59 62 60 60 59 60 61 61
65 61 60 60 61 61 62 66 64 61 60 58 59 46 52 58 60 60 60 59 60 59
62 62 62 61 61 60 63 63 61 59 58 56 56 46 49 52 60 59 60 60 59 59
63 62 62 61 60 59 60 61 59 56 56 56 55 46 47 52 59 61 61 60 59 58
64 62 62 60 58 57 57 57 56 57 56 56 55 46 48 55 60 60 60 60 60 60
64 63 61 60 58 58 58 58 58 57 56 53 56 46 47 55 60 60 59 59 58 50
63 62 61 59 58 59 58 59 58 56 55 56 55 53 47 49 60 60 59 58 57 54
MSLP
1001.83 1002.42 1002.91 1003.45 1004.19 1004.89 1005.43 1005.80 1005.98 1006.24 1006.44 1006.59 1006.85 1007.16 1007.34 1007.57 1007.74 1007.87 1008.06 1008.19 1008.40 1008.56
1002.24 1002.64 1003.16 1003.73 1004.26 1004.97 1005.32 1005.56 1005.83 1006.07 1006.27 1006.51 1006.78 1006.93 1007.01 1007.21 1007.32 1007.44 1007.54 1007.68 1007.92 1008.20
1002.66 1003.02 1003.50 1004.03 1004.67 1005.00 1005.34 1005.53 1005.82 1006.07 1006.26 1006.47 1006.55 1006.62 1006.75 1006.87 1007.01 1007.11 1007.16 1007.32 1007.59 1007.85
1003.15 1003.44 1003.85 1004.32 1004.78 1005.10 1005.27 1005.48 1005.84 1006.00 1006.19 1006.28 1006.38 1006.44 1006.62 1006.76 1006.66 1006.71 1006.84 1007.07 1007.38 1007.53
1003.41 1003.75 1004.18 1004.56 1004.82 1004.99 1005.28 1005.61 1005.77 1005.91 1006.06 1006.16 1006.34 1006.38 1006.55 1006.57 1006.39 1006.59 1006.72 1006.85 1007.21 1007.47
1003.60 1003.96 1004.30 1004.61 1004.83 1005.03 1005.27 1005.54 1005.66 1005.78 1005.95 1006.15 1006.20 1006.28 1006.25 1006.21 1006.26 1006.46 1006.60 1006.89 1007.08 1007.39
1003.69 1004.12 1004.37 1004.59 1004.86 1005.10 1005.23 1005.47 1005.50 1005.62 1005.98 1006.19 1006.29 1006.32 1006.25 1005.95 1005.98 1006.34 1006.68 1006.90 1006.99 1007.22
1003.78 1004.11 1004.47 1004.73 1004.97 1005.08 1005.19 1005.32 1005.36 1005.83 1006.17 1006.42 1006.57 1006.74 1006.46 1006.17 1006.27 1006.55 1006.85 1006.94 1007.04 1007.29
1003.66 1004.13 1004.51 1004.78 1004.94 1005.08 1005.16 1005.25 1005.66 1006.14 1006.34 1006.73 1006.80 1007.06 1006.72 1006.58 1006.61 1006.83 1007.05 1007.20 1007.31 1007.46
1003.63 1004.04 1004.40 1004.79 1005.00 1005.10 1005.30 1005.45 1005.96 1006.49 1006.69 1007.05 1007.06 1007.19 1007.02 1006.91 1006.92 1007.19 1007.33 1007.43 1007.58 1007.86
1003.52 1003.95 1004.41 1004.82 1005.10 1005.33 1005.60 1005.83 1006.22 1006.71 1006.96 1007.27 1007.41 1007.37 1007.15 1007.14 1007.30 1007.47 1007.60 1007.92 1008.11 1008.38
1003.57 1003.92 1004.38 1004.86 1005.15 1005.44 1005.70 1006.09 1006.46 1006.76 1007.11 1007.33 1007.50 1007.57 1007.42 1007.45 1007.66 1007.87 1008.08 1008.41 1008.53 1008.91
1003.55 1003.89 1004.38 1004.71 1005.21 1005.52 1005.84 1006.23 1006.63 1006.95 1007.17 1007.38 1007.62 1007.78 1007.72 1007.81 1008.01 1008.29 1008.55 1009.02 1009.27 1009.56
1003.48 1003.89 1004.36 1004.79 1005.18 1005.55 1005.90 1006.33 1006.83 1007.22 1007.45 1007.63 1007.81 1008.01 1007.99 1008.13 1008.33 1008.63 1008.97 1009.46 1010.02 1010.46
Wind_Speed
8 5 5 6 6 4 4 4 5 5 5 5 5 4 5 3 4 4 5 6 5 4
7 8 7 7 5 4 4 3 5 5 5 4 4 5 5 4 5 5 4 5 4 4
7 7 7 6 6 5 4 4 5 4 3 2 3 5 5 3 4 5 4 3 4 5
6 7 6 6 5 6 5 5 5 4 3 3 2 3 3 4 3 5 2 3 4 5
7 6 6 6 6 6 6 4 5 4 3 2 2 3 3 3 4 4 4 5 4 4
6 6 6 6 6 5 5 5 3 3 2 3 2 2 4 3 4 5 4 4 5 4
6 6 6 6 6 5 4 4 2 3 4 3 2 3 4 2 4 5 3 2 2 5
6 6 6 5 4 4 4 3 5 6 5 3 3 4 4 3 4 5 4 2 2 5
7 6 6 5 4 4 3 4 6 5 5 3 3 6 6 4 4 5 4 4 6 6
7 6 6 6 4 3 3 5 6 4 5 2 3 7 4 6 4 5 5 5 5 5
6 6 6 6 5 3 4 5 6 4 4 3 3 6 4 8 5 5 5 6 6 6
6 7 6 7 6 3 5 5 4 3 4 3 3 6 6 7 5 5 7 7 6 7
6 6 6 6 6 3 3 4 4 4 3 4 4 5 6 7 4 5 6 6 7 11
6 7 6 6 3 5 5 6 5 5 3 4 3 3 8 10 4 5 5 6 5 4
Wind_Direction
119 122 124 132 135 144 147 156 172 173 186 202 202 204 203 202 208 204 214 210 204 196
113 119 126 120 114 137 133 159 166 176 189 208 217 221 222 207 212 202 219 228 196 196
113 110 115 125 143 146 160 162 150 167 200 232 240 235 220 236 235 205 210 219 205 198
124 123 125 134 145 161 155 146 162 187 201 217 247 252 225 215 216 227 215 171 200 195
128 133 134 146 155 160 157 160 176 200 221 222 219 234 242 230 174 182 203 180 168 191
141 150 153 156 156 168 146 167 208 211 237 193 223 264 260 220 212 159 177 184 180 175
160 163 159 159 160 163 165 155 214 160 127 122 60 358 339 192 173 159 149 148 168 162
160 150 146 154 160 177 171 121 114 113 116 90 62 25 346 74 114 125 118 73 134 121
145 146 152 154 181 154 130 118 114 127 121 91 64 2 352 109 106 92 82 77 93 113
153 151 157 163 167 155 126 122 117 129 116 88 59 15 35 109 101 104 100 90 90 89
154 153 159 158 171 136 113 121 128 154 129 122 60 20 103 95 97 93 93 93 92 96
165 154 157 164 160 139 121 124 144 155 141 134 76 34 116 95 88 95 92 97 90 106
172 158 166 162 157 142 132 140 130 136 136 124 101 57 125 105 101 100 95 91 83 87
164 165 163 147 146 135 125 126 128 118 94 97 70 86 132 122 116 119 110 110 107 109